contact:dominique.lefevre@mio.osupytheas.fr, maurice.libes@osupytheas.fr, didier.mallarino@osupytheas.fr
Project:EMSO http://www.emso-fr.org/EMSO-France
Depth: 2436.0 m
Title:EMSO Ligure Ouest : Data MII capteur MICROCAT
DateTime_Computer,Latitude,Longitude,Temperature,Conductivity,Pressure,DateTime_Instrument
DateTime_Computer,Latitude,Longitude,degC,S m-1,dbar,DateTime_Instrument
2022-06-23T00:00:28Z,42.805,6.029,13.3045,4.60119,2470.553,2022-6-23T02:02:12Z
2022-06-23T00:03:31Z,42.805,6.029,13.3036,4.60103,2470.553,2022-6-23T02:05:15Z
2022-06-23T00:06:34Z,42.805,6.029,13.3062,4.60086,2470.591,2022-6-23T02:08:18Z
2022-06-23T00:09:37Z,42.805,6.029,13.3051,4.60117,2470.567,2022-6-23T02:11:21Z
2022-06-23T00:12:40Z,42.805,6.029,13.3049,4.60089,2470.6,2022-6-23T02:14:25Z
2022-06-23T00:15:44Z,42.805,6.029,13.3034,4.60097,2470.614,2022-6-23T02:17:28Z
2022-06-23T00:18:47Z,42.805,6.029,13.3044,4.60114,2470.614,2022-6-23T02:20:31Z
2022-06-23T00:21:50Z,42.805,6.029,13.3038,4.60099,2470.591,2022-6-23T02:23:34Z
2022-06-23T00:24:53Z,42.805,6.029,13.3046,4.60115,2470.577,2022-6-23T02:26:37Z
2022-06-23T00:27:56Z,42.805,6.029,13.3048,4.60079,2470.614,2022-6-23T02:29:40Z
2022-06-23T00:30:59Z,42.805,6.029,13.3063,4.60091,2470.591,2022-6-23T02:32:43Z
2022-06-23T00:34:02Z,42.805,6.029,13.3048,4.60080,2470.6,2022-6-23T02:35:46Z
2022-06-23T00:37:05Z,42.805,6.029,13.3063,4.60067,2470.661,2022-6-23T02:38:50Z
2022-06-23T00:40:09Z,42.805,6.029,13.3056,4.60061,2470.577,2022-6-23T02:41:53Z
2022-06-23T00:43:12Z,42.805,6.029,13.3035,4.60075,2470.614,2022-6-23T02:44:56Z
2022-06-23T00:46:15Z,42.805,6.029,13.3063,4.60071,2470.577,2022-6-23T02:47:59Z
2022-06-23T00:49:18Z,42.805,6.029,13.3054,4.60080,2470.6,2022-6-23T02:51:02Z
2022-06-23T00:52:21Z,42.805,6.029,13.3070,4.60081,2470.614,2022-6-23T02:54:05Z
2022-06-23T00:55:24Z,42.805,6.029,13.3052,4.60090,2470.624,2022-6-23T02:57:08Z
2022-06-23T00:58:27Z,42.805,6.029,13.3032,4.60071,2470.624,2022-6-23T03:00:11Z
2022-06-23T01:01:30Z,42.805,6.029,13.3040,4.60103,2470.61,2022-6-23T03:03:15Z
2022-06-23T01:04:33Z,42.805,6.029,13.3050,4.60067,2470.624,2022-6-23T03:06:18Z
2022-06-23T01:07:37Z,42.805,6.029,13.3046,4.60067,2470.637,2022-6-23T03:09:21Z
2022-06-23T01:10:40Z,42.805,6.029,13.3055,4.60074,2470.6,2022-6-23T03:12:24Z
2022-06-23T01:13:43Z,42.805,6.029,13.3067,4.60081,2470.624,2022-6-23T03:15:27Z
2022-06-23T01:16:46Z,42.805,6.029,13.3069,4.60084,2470.624,2022-6-23T03:18:30Z
2022-06-23T01:19:49Z,42.805,6.029,13.3082,4.60080,2470.661,2022-6-23T03:21:33Z
2022-06-23T01:22:52Z,42.805,6.029,13.3051,4.60070,2470.624,2022-6-23T03:24:36Z
2022-06-23T01:25:55Z,42.805,6.029,13.3058,4.60070,2470.637,2022-6-23T03:27:39Z
2022-06-23T01:28:58Z,42.805,6.029,13.3038,4.60075,2470.624,2022-6-23T03:30:43Z
2022-06-23T01:32:02Z,42.805,6.029,13.3031,4.60081,2470.6,2022-6-23T03:33:46Z
2022-06-23T01:35:05Z,42.805,6.029,13.3048,4.60080,2470.637,2022-6-23T03:36:49Z
2022-06-23T01:38:08Z,42.805,6.029,13.3067,4.60075,2470.661,2022-6-23T03:39:52Z
2022-06-23T01:41:11Z,42.805,6.029,13.3085,4.60089,2470.646,2022-6-23T03:42:55Z
2022-06-23T01:44:14Z,42.805,6.029,13.3067,4.60091,2470.646,2022-6-23T03:45:58Z
2022-06-23T01:47:17Z,42.805,6.029,13.3054,4.60130,2470.646,2022-6-23T03:49:01Z
2022-06-23T01:50:20Z,42.805,6.029,13.3082,4.60072,2470.637,2022-6-23T03:52:04Z
2022-06-23T01:53:23Z,42.805,6.029,13.3051,4.60064,2470.661,2022-6-23T03:55:08Z
2022-06-23T01:56:27Z,42.805,6.029,13.3056,4.60069,2470.684,2022-6-23T03:58:11Z
2022-06-23T01:59:30Z,42.805,6.029,13.3050,4.60092,2470.637,2022-6-23T04:01:14Z
2022-06-23T02:02:33Z,42.805,6.029,13.3058,4.60079,2470.67,2022-6-23T04:04:17Z
2022-06-23T02:05:36Z,42.805,6.029,13.3076,4.60072,2470.661,2022-6-23T04:07:20Z
2022-06-23T02:08:39Z,42.805,6.029,13.3063,4.60069,2470.661,2022-6-23T04:10:23Z
2022-06-23T02:11:42Z,42.805,6.029,13.3051,4.60081,2470.624,2022-6-23T04:13:26Z
2022-06-23T02:14:45Z,42.805,6.029,13.3060,4.60069,2470.693,2022-6-23T04:16:29Z
2022-06-23T02:17:48Z,42.805,6.029,13.3073,4.60065,2470.646,2022-6-23T04:19:33Z
2022-06-23T02:20:52Z,42.805,6.029,13.3038,4.60095,2470.684,2022-6-23T04:22:36Z
2022-06-23T02:23:55Z,42.805,6.029,13.3051,4.60084,2470.646,2022-6-23T04:25:39Z
2022-06-23T02:26:58Z,42.805,6.029,13.3050,4.60130,2470.661,2022-6-23T04:28:42Z
2022-06-23T02:30:01Z,42.805,6.029,13.3049,4.60069,2470.661,2022-6-23T04:31:45Z
2022-06-23T02:33:04Z,42.805,6.029,13.3059,4.60077,2470.637,2022-6-23T04:34:48Z
2022-06-23T02:36:07Z,42.805,6.029,13.3075,4.60073,2470.646,2022-6-23T04:37:51Z
2022-06-23T02:39:10Z,42.805,6.029,13.3056,4.60087,2470.646,2022-6-23T04:40:54Z
2022-06-23T02:42:13Z,42.805,6.029,13.3053,4.60084,2470.646,2022-6-23T04:43:58Z
2022-06-23T02:45:17Z,42.805,6.029,13.3054,4.60096,2470.67,2022-6-23T04:47:01Z
2022-06-23T02:48:20Z,42.805,6.029,13.3063,4.60077,2470.646,2022-6-23T04:50:04Z
2022-06-23T02:51:23Z,42.805,6.029,13.3065,4.60107,2470.684,2022-6-23T04:53:07Z
2022-06-23T02:54:26Z,42.805,6.029,13.3055,4.60107,2470.67,2022-6-23T04:56:10Z
2022-06-23T02:57:29Z,42.805,6.029,13.3065,4.60077,2470.67,2022-6-23T04:59:13Z
2022-06-23T03:00:32Z,42.805,6.029,13.3087,4.60074,2470.707,2022-6-23T05:02:16Z
2022-06-23T03:03:35Z,42.805,6.029,13.3085,4.60075,2470.646,2022-6-23T05:05:19Z
2022-06-23T03:06:38Z,42.805,6.029,13.3078,4.60077,2470.684,2022-6-23T05:08:23Z
2022-06-23T03:09:41Z,42.805,6.029,13.3070,4.60081,2470.661,2022-6-23T05:11:26Z
2022-06-23T03:12:45Z,42.805,6.029,13.3063,4.60073,2470.661,2022-6-23T05:14:29Z
2022-06-23T03:15:48Z,42.805,6.029,13.3066,4.60099,2470.637,2022-6-23T05:17:32Z
2022-06-23T03:18:51Z,42.805,6.029,13.3058,4.60072,2470.67,2022-6-23T05:20:35Z
2022-06-23T03:21:54Z,42.805,6.029,13.3073,4.60081,2470.661,2022-6-23T05:23:38Z
2022-06-23T03:24:57Z,42.805,6.029,13.3080,4.60092,2470.707,2022-6-23T05:26:41Z
2022-06-23T03:28:00Z,42.805,6.029,13.3078,4.60087,2470.637,2022-6-23T05:29:44Z
2022-06-23T03:31:03Z,42.805,6.029,13.3078,4.60082,2470.661,2022-6-23T05:32:48Z
2022-06-23T03:34:07Z,42.805,6.029,13.3079,4.60092,2470.67,2022-6-23T05:35:51Z
2022-06-23T03:37:10Z,42.805,6.029,13.3079,4.60097,2470.646,2022-6-23T05:38:54Z
2022-06-23T03:40:13Z,42.805,6.029,13.3076,4.60073,2470.684,2022-6-23T05:41:57Z
2022-06-23T03:43:16Z,42.805,6.029,13.3086,4.60079,2470.661,2022-6-23T05:45:00Z
2022-06-23T03:46:19Z,42.805,6.029,13.3085,4.60078,2470.661,2022-6-23T05:48:03Z
2022-06-23T03:49:22Z,42.805,6.029,13.3086,4.60084,2470.646,2022-6-23T05:51:06Z
2022-06-23T03:52:25Z,42.805,6.029,13.3073,4.60069,2470.684,2022-6-23T05:54:09Z
2022-06-23T03:55:28Z,42.805,6.029,13.3077,4.60083,2470.624,2022-6-23T05:57:13Z
2022-06-23T03:58:31Z,42.805,6.029,13.3085,4.60074,2470.661,2022-6-23T06:00:16Z
2022-06-23T04:01:35Z,42.805,6.029,13.3061,4.60111,2470.646,2022-6-23T06:03:19Z
2022-06-23T04:04:38Z,42.805,6.029,13.3056,4.60081,2470.646,2022-6-23T06:06:22Z
2022-06-23T04:07:41Z,42.805,6.029,13.3065,4.60069,2470.661,2022-6-23T06:09:25Z
2022-06-23T04:10:44Z,42.805,6.029,13.3073,4.60067,2470.67,2022-6-23T06:12:28Z
2022-06-23T04:13:47Z,42.805,6.029,13.3077,4.60074,2470.646,2022-6-23T06:15:31Z
2022-06-23T04:16:50Z,42.805,6.029,13.3076,4.60070,2470.637,2022-6-23T06:18:34Z
2022-06-23T04:19:53Z,42.805,6.029,13.3077,4.60082,2470.661,2022-6-23T06:21:37Z
2022-06-23T04:22:56Z,42.805,6.029,13.3061,4.60081,2470.67,2022-6-23T06:24:41Z
2022-06-23T04:26:00Z,42.805,6.029,13.3082,4.60074,2470.646,2022-6-23T06:27:44Z
2022-06-23T04:29:03Z,42.805,6.029,13.3088,4.60067,2470.637,2022-6-23T06:30:47Z
2022-06-23T04:32:06Z,42.805,6.029,13.3084,4.60089,2470.684,2022-6-23T06:33:50Z
2022-06-23T04:35:09Z,42.805,6.029,13.3090,4.60083,2470.661,2022-6-23T06:36:53Z
2022-06-23T04:38:12Z,42.805,6.029,13.3080,4.60087,2470.637,2022-6-23T06:39:56Z
2022-06-23T04:41:15Z,42.805,6.029,13.3079,4.60073,2470.661,2022-6-23T06:42:59Z
2022-06-23T04:44:18Z,42.805,6.029,13.3092,4.60088,2470.637,2022-6-23T06:46:02Z
2022-06-23T04:47:21Z,42.805,6.029,13.3090,4.60075,2470.67,2022-6-23T06:49:06Z
2022-06-23T04:50:25Z,42.805,6.029,13.3093,4.60083,2470.637,2022-6-23T06:52:09Z
2022-06-23T04:53:28Z,42.805,6.029,13.3083,4.60090,2470.624,2022-6-23T06:55:12Z
2022-06-23T04:56:31Z,42.805,6.029,13.3092,4.60074,2470.661,2022-6-23T06:58:15Z
2022-06-23T04:59:34Z,42.805,6.029,13.3091,4.60085,2470.6,2022-6-23T07:01:18Z
2022-06-23T05:02:37Z,42.805,6.029,13.3078,4.60087,2470.624,2022-6-23T07:04:21Z
2022-06-23T05:05:40Z,42.805,6.029,13.3093,4.60094,2470.67,2022-6-23T07:07:24Z
2022-06-23T05:08:43Z,42.805,6.029,13.3085,4.60086,2470.624,2022-6-23T07:10:27Z
2022-06-23T05:11:46Z,42.805,6.029,13.3098,4.60070,2470.6,2022-6-23T07:13:31Z
2022-06-23T05:14:49Z,42.805,6.029,13.3096,4.60069,2470.661,2022-6-23T07:16:34Z
2022-06-23T05:17:53Z,42.805,6.029,13.3089,4.60080,2470.624,2022-6-23T07:19:37Z
2022-06-23T05:20:56Z,42.805,6.029,13.3085,4.60088,2470.624,2022-6-23T07:22:40Z
2022-06-23T05:23:59Z,42.805,6.029,13.3088,4.60092,2470.637,2022-6-23T07:25:43Z
2022-06-23T05:27:02Z,42.805,6.029,13.3073,4.60121,2470.637,2022-6-23T07:28:46Z
2022-06-23T05:30:05Z,42.805,6.029,13.3069,4.60139,2470.637,2022-6-23T07:31:49Z
2022-06-23T05:33:08Z,42.805,6.029,13.3084,4.60133,2470.637,2022-6-23T07:34:52Z
2022-06-23T05:36:11Z,42.805,6.029,13.3082,4.60138,2470.646,2022-6-23T07:37:56Z
2022-06-23T05:39:14Z,42.805,6.029,13.3075,4.60114,2470.6,2022-6-23T07:40:59Z
2022-06-23T05:42:18Z,42.805,6.029,13.3066,4.60103,2470.637,2022-6-23T07:44:02Z
2022-06-23T05:45:21Z,42.805,6.029,13.3078,4.60110,2470.624,2022-6-23T07:47:05Z
2022-06-23T05:48:24Z,42.805,6.029,13.3059,4.60087,2470.637,2022-6-23T07:50:08Z
2022-06-23T05:51:27Z,42.805,6.029,13.3011,4.60127,2470.624,2022-6-23T07:53:11Z
2022-06-23T05:54:30Z,42.805,6.029,13.3011,4.60144,2470.614,2022-6-23T07:56:14Z
2022-06-23T05:57:33Z,42.805,6.029,13.3008,4.60163,2470.637,2022-6-23T07:59:17Z
2022-06-23T06:00:36Z,42.805,6.029,13.3009,4.60168,2470.614,2022-6-23T08:02:20Z
2022-06-23T06:03:39Z,42.805,6.029,13.3011,4.60125,2470.614,2022-6-23T08:05:24Z
2022-06-23T06:06:43Z,42.805,6.029,13.3009,4.60078,2470.637,2022-6-23T08:08:27Z
2022-06-23T06:09:46Z,42.805,6.029,13.3014,4.60129,2470.6,2022-6-23T08:11:30Z
2022-06-23T06:12:49Z,42.805,6.029,13.3014,4.60131,2470.624,2022-6-23T08:14:33Z
2022-06-23T06:15:52Z,42.805,6.029,13.3013,4.60109,2470.6,2022-6-23T08:17:36Z
2022-06-23T06:18:55Z,42.805,6.029,13.3014,4.60072,2470.6,2022-6-23T08:20:39Z
2022-06-23T06:21:58Z,42.805,6.029,13.3011,4.60099,2470.6,2022-6-23T08:23:42Z
2022-06-23T06:25:01Z,42.805,6.029,13.3010,4.60110,2470.614,2022-6-23T08:26:45Z
2022-06-23T06:28:04Z,42.805,6.029,13.3011,4.60052,2470.637,2022-6-23T08:29:49Z
2022-06-23T06:31:08Z,42.805,6.029,13.3007,4.60052,2470.614,2022-6-23T08:32:52Z
2022-06-23T06:34:11Z,42.805,6.029,13.3015,4.60054,2470.614,2022-6-23T08:35:55Z
2022-06-23T06:37:14Z,42.805,6.029,13.3009,4.60064,2470.614,2022-6-23T08:38:58Z
2022-06-23T06:40:17Z,42.805,6.029,13.3009,4.60071,2470.6,2022-6-23T08:42:01Z
2022-06-23T06:43:20Z,42.805,6.029,13.3011,4.60084,2470.591,2022-6-23T08:45:04Z
2022-06-23T06:46:23Z,42.805,6.029,13.3006,4.60081,2470.624,2022-6-23T08:48:07Z
2022-06-23T06:49:26Z,42.805,6.029,13.3005,4.60082,2470.577,2022-6-23T08:51:10Z
2022-06-23T06:52:29Z,42.805,6.029,13.3011,4.60064,2470.6,2022-6-23T08:54:14Z
2022-06-23T06:55:32Z,42.805,6.029,13.3009,4.60057,2470.614,2022-6-23T08:57:17Z
2022-06-23T06:58:36Z,42.805,6.029,13.3008,4.60053,2470.567,2022-6-23T09:00:20Z
2022-06-23T07:01:39Z,42.805,6.029,13.3005,4.60058,2470.577,2022-6-23T09:03:23Z
2022-06-23T07:04:42Z,42.805,6.029,13.3011,4.60053,2470.591,2022-6-23T09:06:26Z
2022-06-23T07:07:45Z,42.805,6.029,13.3009,4.60056,2470.591,2022-6-23T09:09:29Z
2022-06-23T07:10:48Z,42.805,6.029,13.3009,4.60063,2470.591,2022-6-23T09:12:32Z
2022-06-23T07:13:51Z,42.805,6.029,13.3010,4.60066,2470.591,2022-6-23T09:15:35Z
2022-06-23T07:16:54Z,42.805,6.029,13.3009,4.60046,2470.553,2022-6-23T09:18:39Z
2022-06-23T07:19:57Z,42.805,6.029,13.3008,4.60047,2470.553,2022-6-23T09:21:42Z
2022-06-23T07:23:01Z,42.805,6.029,13.3008,4.60053,2470.591,2022-6-23T09:24:45Z
2022-06-23T07:26:04Z,42.805,6.029,13.3013,4.60045,2470.53,2022-6-23T09:27:48Z
2022-06-23T07:29:07Z,42.805,6.029,13.3012,4.60047,2470.591,2022-6-23T09:30:51Z
2022-06-23T07:32:10Z,42.805,6.029,13.3015,4.60048,2470.614,2022-6-23T09:33:54Z
2022-06-23T07:35:13Z,42.805,6.029,13.3015,4.60050,2470.591,2022-6-23T09:36:57Z
2022-06-23T07:38:16Z,42.805,6.029,13.3014,4.60049,2470.53,2022-6-23T09:40:00Z
2022-06-23T07:41:19Z,42.805,6.029,13.3015,4.60113,2470.563,2022-6-23T09:43:03Z
2022-06-23T07:44:22Z,42.805,6.029,13.3023,4.60051,2470.553,2022-6-23T09:46:07Z
2022-06-23T07:47:26Z,42.805,6.029,13.3012,4.60052,2470.577,2022-6-23T09:49:10Z
2022-06-23T07:50:29Z,42.805,6.029,13.3012,4.60044,2470.614,2022-6-23T09:52:13Z
2022-06-23T07:53:32Z,42.805,6.029,13.3011,4.60060,2470.544,2022-6-23T09:55:16Z
2022-06-23T07:56:35Z,42.805,6.029,13.3014,4.60046,2470.53,2022-6-23T09:58:19Z
2022-06-23T07:59:38Z,42.805,6.029,13.3011,4.60043,2470.553,2022-6-23T10:01:22Z
2022-06-23T08:02:41Z,42.805,6.029,13.3011,4.60043,2470.544,2022-6-23T10:04:25Z
2022-06-23T08:05:44Z,42.805,6.029,13.3015,4.60044,2470.53,2022-6-23T10:07:28Z
2022-06-23T08:08:47Z,42.805,6.029,13.3021,4.60052,2470.544,2022-6-23T10:10:32Z
2022-06-23T08:11:50Z,42.805,6.029,13.3014,4.60052,2470.53,2022-6-23T10:13:35Z
2022-06-23T08:14:54Z,42.805,6.029,13.3018,4.60053,2470.591,2022-6-23T10:16:38Z
2022-06-23T08:17:57Z,42.805,6.029,13.3017,4.60046,2470.544,2022-6-23T10:19:41Z
2022-06-23T08:21:00Z,42.805,6.029,13.3021,4.60060,2470.53,2022-6-23T10:22:44Z
2022-06-23T08:24:03Z,42.805,6.029,13.3018,4.60051,2470.53,2022-6-23T10:25:47Z
2022-06-23T08:27:06Z,42.805,6.029,13.3018,4.60051,2470.577,2022-6-23T10:28:50Z
2022-06-23T08:30:09Z,42.805,6.029,13.3010,4.60048,2470.53,2022-6-23T10:31:53Z
2022-06-23T08:33:12Z,42.805,6.029,13.3012,4.60054,2470.53,2022-6-23T10:34:57Z
2022-06-23T08:36:15Z,42.805,6.029,13.3012,4.60047,2470.553,2022-6-23T10:38:00Z
2022-06-23T08:39:19Z,42.805,6.029,13.3011,4.60044,2470.567,2022-6-23T10:41:03Z
2022-06-23T08:42:22Z,42.805,6.029,13.3011,4.60043,2470.544,2022-6-23T10:44:06Z
2022-06-23T08:45:25Z,42.805,6.029,13.3011,4.60042,2470.553,2022-6-23T10:47:09Z
2022-06-23T08:48:28Z,42.805,6.029,13.3011,4.60044,2470.567,2022-6-23T10:50:12Z
2022-06-23T08:51:31Z,42.805,6.029,13.3007,4.60041,2470.544,2022-6-23T10:53:15Z
2022-06-23T08:54:34Z,42.805,6.029,13.3009,4.60046,2470.507,2022-6-23T10:56:18Z
2022-06-23T08:57:37Z,42.805,6.029,13.3009,4.60044,2470.567,2022-6-23T10:59:22Z
2022-06-23T09:00:40Z,42.805,6.029,13.3013,4.60050,2470.544,2022-6-23T11:02:25Z
2022-06-23T09:03:44Z,42.805,6.029,13.3011,4.60048,2470.53,2022-6-23T11:05:28Z
2022-06-23T09:06:47Z,42.805,6.029,13.3009,4.60044,2470.53,2022-6-23T11:08:31Z
2022-06-23T09:09:50Z,42.805,6.029,13.3007,4.60043,2470.553,2022-6-23T11:11:34Z
2022-06-23T09:12:53Z,42.805,6.029,13.3009,4.60043,2470.507,2022-6-23T11:14:37Z
2022-06-23T09:15:56Z,42.805,6.029,13.3007,4.60044,2470.507,2022-6-23T11:17:40Z
2022-06-23T09:18:59Z,42.805,6.029,13.3011,4.60046,2470.544,2022-6-23T11:20:43Z
2022-06-23T09:22:02Z,42.805,6.029,13.3012,4.60046,2470.507,2022-6-23T11:23:47Z
2022-06-23T09:25:05Z,42.805,6.029,13.3010,4.60046,2470.52,2022-6-23T11:26:50Z
2022-06-23T09:28:09Z,42.805,6.029,13.3010,4.60049,2470.553,2022-6-23T11:29:53Z
2022-06-23T09:31:12Z,42.805,6.029,13.3006,4.60059,2470.52,2022-6-23T11:32:56Z
2022-06-23T09:34:15Z,42.805,6.029,13.3009,4.60052,2470.52,2022-6-23T11:35:59Z
2022-06-23T09:37:18Z,42.805,6.029,13.3006,4.60044,2470.52,2022-6-23T11:39:02Z
2022-06-23T09:40:21Z,42.805,6.029,13.3011,4.60044,2470.53,2022-6-23T11:42:05Z
2022-06-23T09:43:24Z,42.805,6.029,13.3013,4.60046,2470.544,2022-6-23T11:45:08Z
2022-06-23T09:46:27Z,42.805,6.029,13.3008,4.60042,2470.567,2022-6-23T11:48:12Z
2022-06-23T09:49:31Z,42.805,6.029,13.3008,4.60042,2470.53,2022-6-23T11:51:15Z
2022-06-23T09:52:34Z,42.805,6.029,13.3010,4.60044,2470.544,2022-6-23T11:54:18Z
2022-06-23T09:55:37Z,42.805,6.029,13.3010,4.60042,2470.52,2022-6-23T11:57:21Z
2022-06-23T09:58:40Z,42.805,6.029,13.3008,4.60046,2470.544,2022-6-23T12:00:24Z
2022-06-23T10:01:43Z,42.805,6.029,13.3010,4.60048,2470.53,2022-6-23T12:03:27Z
2022-06-23T10:04:46Z,42.805,6.029,13.3008,4.60047,2470.567,2022-6-23T12:06:30Z
2022-06-23T10:07:49Z,42.805,6.029,13.3009,4.60043,2470.53,2022-6-23T12:09:33Z
2022-06-23T10:10:52Z,42.805,6.029,13.3009,4.60046,2470.544,2022-6-23T12:12:37Z
2022-06-23T10:13:56Z,42.805,6.029,13.3010,4.60042,2470.553,2022-6-23T12:15:40Z
2022-06-23T10:16:59Z,42.805,6.029,13.3006,4.60039,2470.507,2022-6-23T12:18:43Z
2022-06-23T10:20:02Z,42.805,6.029,13.3009,4.60038,2470.544,2022-6-23T12:21:46Z
2022-06-23T10:23:05Z,42.805,6.029,13.3006,4.60038,2470.544,2022-6-23T12:24:49Z
2022-06-23T10:26:08Z,42.805,6.029,13.3006,4.60039,2470.52,2022-6-23T12:27:52Z
2022-06-23T10:29:11Z,42.805,6.029,13.3006,4.60042,2470.507,2022-6-23T12:30:55Z
2022-06-23T10:32:14Z,42.805,6.029,13.3005,4.60039,2470.553,2022-6-23T12:33:59Z
2022-06-23T10:35:17Z,42.805,6.029,13.3010,4.60041,2470.507,2022-6-23T12:37:02Z
2022-06-23T10:38:21Z,42.805,6.029,13.3006,4.60041,2470.553,2022-6-23T12:40:05Z
2022-06-23T10:41:24Z,42.805,6.029,13.3006,4.60042,2470.483,2022-6-23T12:43:08Z
2022-06-23T10:44:27Z,42.805,6.029,13.3006,4.60042,2470.52,2022-6-23T12:46:11Z
2022-06-23T10:47:30Z,42.805,6.029,13.3009,4.60042,2470.483,2022-6-23T12:49:14Z
2022-06-23T10:50:33Z,42.805,6.029,13.3009,4.60043,2470.53,2022-6-23T12:52:17Z
2022-06-23T10:53:36Z,42.805,6.029,13.3011,4.60043,2470.544,2022-6-23T12:55:20Z
2022-06-23T10:56:39Z,42.805,6.029,13.3006,4.60044,2470.507,2022-6-23T12:58:24Z
2022-06-23T10:59:42Z,42.805,6.029,13.3008,4.60043,2470.507,2022-6-23T13:01:27Z
2022-06-23T11:02:46Z,42.805,6.029,13.3009,4.60047,2470.507,2022-6-23T13:04:30Z
2022-06-23T11:05:49Z,42.805,6.029,13.3008,4.60044,2470.553,2022-6-23T13:07:33Z
2022-06-23T11:08:52Z,42.805,6.029,13.3003,4.60043,2470.507,2022-6-23T13:10:36Z
2022-06-23T11:11:55Z,42.805,6.029,13.3009,4.60045,2470.53,2022-6-23T13:13:39Z
2022-06-23T11:14:58Z,42.805,6.029,13.3010,4.60062,2470.544,2022-6-23T13:16:42Z
2022-06-23T11:18:01Z,42.805,6.029,13.3006,4.60044,2470.507,2022-6-23T13:19:45Z
2022-06-23T11:21:04Z,42.805,6.029,13.3014,4.60049,2470.52,2022-6-23T13:22:49Z
2022-06-23T11:24:07Z,42.805,6.029,13.3006,4.60046,2470.53,2022-6-23T13:25:52Z
2022-06-23T11:27:11Z,42.805,6.029,13.3007,4.60041,2470.567,2022-6-23T13:28:55Z
2022-06-23T11:30:14Z,42.805,6.029,13.3008,4.60046,2470.53,2022-6-23T13:31:58Z
2022-06-23T11:33:17Z,42.805,6.029,13.3007,4.60042,2470.567,2022-6-23T13:35:01Z
2022-06-23T11:36:20Z,42.805,6.029,13.3007,4.60040,2470.52,2022-6-23T13:38:04Z
2022-06-23T11:39:23Z,42.805,6.029,13.3007,4.60044,2470.53,2022-6-23T13:41:07Z
2022-06-23T11:42:26Z,42.805,6.029,13.3009,4.60039,2470.544,2022-6-23T13:44:10Z
2022-06-23T11:45:29Z,42.805,6.029,13.3006,4.60042,2470.544,2022-6-23T13:47:14Z
2022-06-23T11:48:32Z,42.805,6.029,13.3006,4.60040,2470.553,2022-6-23T13:50:17Z
2022-06-23T11:51:36Z,42.805,6.029,13.3006,4.60041,2470.567,2022-6-23T13:53:20Z
2022-06-23T11:54:39Z,42.805,6.029,13.3005,4.60041,2470.553,2022-6-23T13:56:23Z
2022-06-23T11:57:42Z,42.805,6.029,13.3006,4.60044,2470.567,2022-6-23T13:59:26Z
2022-06-23T12:00:45Z,42.805,6.029,13.3006,4.60046,2470.553,2022-6-23T14:02:29Z
2022-06-23T12:03:48Z,42.805,6.029,13.3008,4.60043,2470.553,2022-6-23T14:05:32Z
2022-06-23T12:06:51Z,42.805,6.029,13.3008,4.60044,2470.553,2022-6-23T14:08:35Z
2022-06-23T12:09:54Z,42.805,6.029,13.3004,4.60046,2470.53,2022-6-23T14:11:39Z
2022-06-23T12:12:57Z,42.805,6.029,13.3009,4.60044,2470.591,2022-6-23T14:14:42Z
2022-06-23T12:16:01Z,42.805,6.029,13.3011,4.60042,2470.591,2022-6-23T14:17:45Z
2022-06-23T12:19:04Z,42.805,6.029,13.3005,4.60043,2470.591,2022-6-23T14:20:48Z
2022-06-23T12:22:07Z,42.805,6.029,13.3006,4.60041,2470.553,2022-6-23T14:23:51Z
2022-06-23T12:25:10Z,42.805,6.029,13.3007,4.60040,2470.591,2022-6-23T14:26:54Z
2022-06-23T12:28:13Z,42.805,6.029,13.3009,4.60046,2470.553,2022-6-23T14:29:57Z
2022-06-23T12:31:16Z,42.805,6.029,13.3009,4.60046,2470.591,2022-6-23T14:33:00Z
2022-06-23T12:34:19Z,42.805,6.029,13.3006,4.60042,2470.567,2022-6-23T14:36:04Z
2022-06-23T12:37:22Z,42.805,6.029,13.3008,4.60041,2470.567,2022-6-23T14:39:07Z
2022-06-23T12:40:26Z,42.805,6.029,13.3006,4.60046,2470.591,2022-6-23T14:42:10Z
2022-06-23T12:43:29Z,42.805,6.029,13.3005,4.60049,2470.553,2022-6-23T14:45:13Z
2022-06-23T12:46:32Z,42.805,6.029,13.3009,4.60046,2470.553,2022-6-23T14:48:16Z
2022-06-23T12:49:35Z,42.805,6.029,13.3007,4.60048,2470.591,2022-6-23T14:51:19Z
2022-06-23T12:52:38Z,42.805,6.029,13.3008,4.60043,2470.577,2022-6-23T14:54:22Z
2022-06-23T12:55:41Z,42.805,6.029,13.3007,4.60049,2470.553,2022-6-23T14:57:25Z
2022-06-23T12:58:44Z,42.805,6.029,13.3006,4.60046,2470.553,2022-6-23T15:00:29Z
2022-06-23T13:01:47Z,42.805,6.029,13.3008,4.60050,2470.577,2022-6-23T15:03:32Z
2022-06-23T13:04:51Z,42.805,6.029,13.3010,4.60047,2470.591,2022-6-23T15:06:35Z
2022-06-23T13:07:54Z,42.805,6.029,13.3007,4.60050,2470.614,2022-6-23T15:09:38Z
2022-06-23T13:10:57Z,42.805,6.029,13.3009,4.60044,2470.553,2022-6-23T15:12:41Z
2022-06-23T13:14:00Z,42.805,6.029,13.3010,4.60040,2470.6,2022-6-23T15:15:44Z
2022-06-23T13:17:03Z,42.805,6.029,13.3007,4.60044,2470.577,2022-6-23T15:18:47Z
2022-06-23T13:20:06Z,42.805,6.029,13.3004,4.60049,2470.577,2022-6-23T15:21:50Z
2022-06-23T13:23:09Z,42.805,6.029,13.3008,4.60062,2470.577,2022-6-23T15:24:54Z
2022-06-23T13:26:12Z,42.805,6.029,13.3036,4.60062,2470.591,2022-6-23T15:27:57Z
2022-06-23T13:29:16Z,42.805,6.029,13.3039,4.60070,2470.6,2022-6-23T15:31:00Z
2022-06-23T13:32:19Z,42.805,6.029,13.3021,4.60043,2470.6,2022-6-23T15:34:03Z
2022-06-23T13:35:22Z,42.805,6.029,13.3007,4.60054,2470.637,2022-6-23T15:37:06Z
2022-06-23T13:38:25Z,42.805,6.029,13.3015,4.60052,2470.6,2022-6-23T15:40:09Z
2022-06-23T13:41:28Z,42.805,6.029,13.3023,4.60062,2470.614,2022-6-23T15:43:12Z
2022-06-23T13:44:31Z,42.805,6.029,13.3043,4.60082,2470.6,2022-6-23T15:46:15Z
2022-06-23T13:47:34Z,42.805,6.029,13.3057,4.60047,2470.614,2022-6-23T15:49:19Z
2022-06-23T13:50:37Z,42.805,6.029,13.3011,4.60056,2470.6,2022-6-23T15:52:22Z
2022-06-23T13:53:41Z,42.805,6.029,13.3014,4.60047,2470.614,2022-6-23T15:55:25Z
2022-06-23T13:56:44Z,42.805,6.029,13.3010,4.60055,2470.614,2022-6-23T15:58:28Z
2022-06-23T13:59:47Z,42.805,6.029,13.3024,4.60061,2470.6,2022-6-23T16:01:31Z
2022-06-23T14:02:50Z,42.805,6.029,13.3041,4.60064,2470.6,2022-6-23T16:04:34Z
2022-06-23T14:05:53Z,42.805,6.029,13.3015,4.60054,2470.624,2022-6-23T16:07:37Z
2022-06-23T14:08:56Z,42.805,6.029,13.3019,4.60064,2470.624,2022-6-23T16:10:40Z
2022-06-23T14:11:59Z,42.805,6.029,13.3024,4.60062,2470.6,2022-6-23T16:13:44Z
2022-06-23T14:15:02Z,42.805,6.029,13.3016,4.60061,2470.614,2022-6-23T16:16:47Z
2022-06-23T14:18:06Z,42.805,6.029,13.3023,4.60052,2470.6,2022-6-23T16:19:50Z
2022-06-23T14:21:09Z,42.805,6.029,13.3039,4.60074,2470.624,2022-6-23T16:22:53Z
2022-06-23T14:24:12Z,42.805,6.029,13.3052,4.60106,2470.624,2022-6-23T16:25:56Z
2022-06-23T14:27:15Z,42.805,6.029,13.3048,4.60074,2470.637,2022-6-23T16:28:59Z
2022-06-23T14:30:18Z,42.805,6.029,13.3027,4.60046,2470.6,2022-6-23T16:32:02Z
2022-06-23T14:33:21Z,42.805,6.029,13.3051,4.60074,2470.6,2022-6-23T16:35:05Z
2022-06-23T14:36:24Z,42.805,6.029,13.3017,4.60049,2470.6,2022-6-23T16:38:09Z
2022-06-23T14:39:27Z,42.805,6.029,13.3031,4.60057,2470.614,2022-6-23T16:41:12Z
2022-06-23T14:42:31Z,42.805,6.029,13.3016,4.60061,2470.6,2022-6-23T16:44:15Z
2022-06-23T14:45:34Z,42.805,6.029,13.3017,4.60064,2470.646,2022-6-23T16:47:18Z
2022-06-23T14:48:37Z,42.805,6.029,13.3042,4.60068,2470.637,2022-6-23T16:50:21Z
2022-06-23T14:51:40Z,42.805,6.029,13.3090,4.60085,2470.6,2022-6-23T16:53:24Z
2022-06-23T14:54:43Z,42.805,6.029,13.3040,4.60071,2470.591,2022-6-23T16:56:27Z
2022-06-23T14:57:46Z,42.805,6.029,13.3054,4.60066,2470.614,2022-6-23T16:59:31Z
2022-06-23T15:00:49Z,42.805,6.029,13.3052,4.60137,2470.624,2022-6-23T17:02:34Z
2022-06-23T15:03:52Z,42.805,6.029,13.3048,4.60059,2470.6,2022-6-23T17:05:37Z
2022-06-23T15:06:56Z,42.805,6.029,13.3061,4.60057,2470.6,2022-6-23T17:08:40Z
2022-06-23T15:09:59Z,42.805,6.029,13.3061,4.60061,2470.637,2022-6-23T17:11:43Z
2022-06-23T15:13:02Z,42.805,6.029,13.3046,4.60095,2470.624,2022-6-23T17:14:46Z